Regional Weather Roundup
Issued by NWS

Home | Current Version | Previous Version | Graphics & Text | Print | Product List | Glossary Off
Versions: 1 2 3 4 5 6 7 8 9 10 11 12 13 14 15 16 17 18 19 20 21 22 23 24 25 26 27 28 29 30 31 32 33 34 35 36 37 38 39 40 41 42 43 44 45 46 47 48 49 50

000
ASUS43 KTOP 061208
RWRKS

WEATHER ROUNDUP FOR KANSAS
NATIONAL WEATHER SERVICE GOODLAND KS
700 AM CDT MON JUL 06 2015

NOTE:  "FAIR" INDICATES FEW OR NO CLOUDS BELOW 12,000 FEET WITH NO
SIGNIFICANT WEATHER AND/OR OBSTRUCTIONS TO VISIBILITY.

KSZ001>006-013>018-027>032-041>047-061300-
NORTHWEST KANSAS

CITY           SKY/WX    TMP DP  RH WIND       PRES   REMARKS
GOODLAND       CLOUDY    64  62  93 N17G25    29.99R
6HR MIN TEMP:  64; 6HR MAX TEMP:  68; 6HR PCP: TRACE;

HAYS           MOCLDY    77  63  61 SW10      29.85R
HILL CITY      MOCLDY    74  65  73 N9        29.86R
6HR MIN TEMP:  73; 6HR MAX TEMP:  85;

RUSSELL        MOCLDY    77  66  68 S9        29.82R
6HR MIN TEMP:  77; 6HR MAX TEMP:  81;

$$

KSZ061>065-074>080-084>089-061300-
SOUTHWEST KANSAS

CITY           SKY/WX    TMP DP  RH WIND       PRES   REMARKS
DODGE CITY     PTCLDY    72  63  73 S13       29.89R
6HR MIN TEMP:  72; 6HR MAX TEMP:  78;

ELKHART          N/A     71  57  61 NW8         N/A
GARDEN CITY    PTCLDY    69  66  90 CALM      29.90R
6HR MIN TEMP:  69; 6HR MAX TEMP:  77;

GREAT BEND     MOCLDY    75  64  69 S9        29.86S
LIBERAL        CLEAR     72  63  73 S9        29.92S
PRATT          MOCLDY    73  63  68 S9        29.88R
$$

KSZ066>073-081>083-090>101-061300-
SOUTHEAST KANSAS

CITY           SKY/WX    TMP DP  RH WIND       PRES   REMARKS
CHANUTE        MOCLDY    75  71  87 S10       29.93R
6HR MIN TEMP:  74; 6HR MAX TEMP:  78;

COFFEYVILLE    MOCLDY    74  72  93 S10       29.93S
6HR MIN TEMP:  74; 6HR MAX TEMP:  79;

HUTCHINSON     CLOUDY    77  67  71 S12       29.87R
6HR MIN TEMP:  77; 6HR MAX TEMP:  83;

MEDICINE LODGE   N/A     75  67  76 S9        29.87R
NEWTON         CLOUDY    75  64  69 S13       29.90S
PARSONS        MOCLDY    75  72  90 S9        29.95R
6HR MIN TEMP:  75; 6HR MAX TEMP:  79;

WICHITA INTL   CLOUDY    77  69  76 S12       29.88R
6HR MIN TEMP:  77; 6HR MAX TEMP:  83;

WICHITA JABRA  MOCLDY    76  69  79 S12       29.88S
6HR MIN TEMP:  75; 6HR MAX TEMP:  82;

WICHITA MCCONL MOCLDY    76  69  78 S14       29.89S
WINFIELD       MOCLDY    76  70  82 S12       29.91S
6HR MIN TEMP:  76; 6HR MAX TEMP:  81;

$$

KSZ007>012-019>026-033>040-048>060-102>105-061300-
NORTHEAST KANSAS

CITY           SKY/WX    TMP DP  RH WIND       PRES   REMARKS
CONCORDIA      CLOUDY    76  68  76 NE5       29.87R
6HR MIN TEMP:  75; 6HR MAX TEMP:  84;

EMPORIA        MOCLDY    74  69  85 S15       29.90R
6HR MIN TEMP:  73; 6HR MAX TEMP:  80;

LAWRENCE       CLOUDY    74  71  91 SE5       29.90R
6HR MIN TEMP:  74; 6HR MAX TEMP:  81;

MANHATTAN      CLOUDY    78  70  76 S7        29.86R
6HR MIN TEMP:  78; 6HR MAX TEMP:  84;

MARYSVILLE     CLOUDY    73  72  94 CALM      29.88R
OLATHE IND     CLOUDY    73  70  90 S9        29.93R
6HR MIN TEMP:  72; 6HR MAX TEMP:  76;

OLATHE EXE     CLOUDY    73  69  87 S9        29.92R
6HR MIN TEMP:  72; 6HR MAX TEMP:  74;

SALINA         MOCLDY    78  67  68 S10       29.85R
6HR MIN TEMP:  78; 6HR MAX TEMP:  86;

TOPEKA BILLARD CLOUDY    77  72  84 S5        29.88R
6HR MIN TEMP:  76; 6HR MAX TEMP:  83;

TOPEKA FORBES  CLOUDY    77  71  82 S10       29.89R
6HR MIN TEMP:  76; 6HR MAX TEMP:  83;

$$


USA.gov is the U.S. government's official web portal to all federal, state and local government web resources and services.